#timestamp,LO_Frequency,Hit 
1500994815.3,286047731.3,N
1500994835.2,286047962.8,Y
1500994855.0,286047902.7,Y
1500994855.9,286047902.7,Y
1500994875.8,286047772.3,N
1500994895.6,286047771.9,N
1500994915.4,286047770.1,N
1500994935.3,286047769.6,N
1500994955.1,286047768.6,N
1500994956.0,286047768.6,N
1500994975.8,286048191.3,Y
1500994995.7,286048123.9,Y
1500995015.5,286047776.4,N
1500995035.3,286047773.4,N
1500995055.2,286047768.4,N
1500995075.9,286047771.8,N
1500995095.7,286047769.6,N
1500995115.6,286048133.1,Y
1500995135.4,286047783.7,N
1500995155.2,286047631.9,N
1500995175.1,286047843.5,N
1500995176.0,286047843.5,N
1500995195.8,286047635.3,N
1500995215.6,286047630.5,N
1500995235.4,286047630.9,N
1500995255.3,286047973.3,N
1500995275.1,286047625.9,N
1500995295.8,286047470.7,N
1500995315.7,286047808.9,N
1500995335.5,286047808.6,N
1500995355.3,286046668.9,N
1500995375.2,286047803.8,N
1500995395.9,286047801.3,N
1500995415.7,286047628.1,N
1500995435.6,286047805.1,N
1500995455.4,286047808.4,N
1500995475.2,286047634.8,N
1500995495.0,286047515.5,N
1500995496.0,286047515.5,N
1500995515.8,286046677.4,N
1500995535.6,286047399.1,N
1500995555.4,286046693.6,N
1500995575.3,286047057.6,N
1500995595.1,286047059.3,N
1500995615.8,286047062.4,N
1500995635.7,286047061.8,N
1500995655.5,286047063.1,N
1500995675.3,286047061.3,N
1500995695.2,286047059.7,N
1500995715.9,286046326.2,N
1500995735.7,286046781.9,N
1500995755.6,286046715.0,N
1500995775.4,286046717.6,N
1500995795.2,286046714.8,N
1500995815.0,286045895.2,N
1500995815.9,286045895.2,N
1500995835.8,286046557.4,N
1500995855.6,286046475.4,N
1500995875.4,286046475.3,N
1500995895.3,286046474.6,N
1500995915.1,286046475.7,N
1500995935.8,286046478.6,N
1500995955.7,286046480.1,N
1500995975.5,286046479.1,N
1500995995.3,286046482.8,N
1500996015.2,286046482.8,N
1500996035.9,286046481.4,N
1500996055.7,286046484.2,N
1500996075.6,286046480.5,N
1500996095.4,286046478.8,N
1500996115.2,286046479.3,N
1500996135.1,286046478.1,N
1500996136.0,286046478.1,N
1500996155.8,286046480.2,N
1500996175.6,286046322.7,N
1500996195.4,286046319.9,N
1500996215.3,286046323.3,N
1500996235.1,286046322.2,N
1500996255.8,286046323.0,N
1500996275.7,286046323.3,N
1500996295.5,286046323.4,N
1500996315.3,286046322.7,N
1500996335.2,286046322.4,N
1500996355.9,286046316.5,N
1500996375.7,286046314.9,N
1500996395.6,286046320.3,N
1500996415.4,286046319.6,N
1500996435.2,286046321.1,N
1500996455.1,286046318.5,N
1500996456.0,286046318.5,N
1500996475.8,286046320.9,N
1500996495.6,286046318.2,N
1500996515.4,286046324.4,N
1500996535.3,286046320.5,N
1500996555.1,286046324.2,N
1500996575.8,286046323.1,N
1500996595.7,286046321.0,N
1500996615.5,286046314.9,N
1500996635.3,286046311.9,N
1500996655.2,286046313.3,N
1500996675.9,286046314.9,N
1500996695.7,286046317.1,N
1500996715.6,286046320.3,N
1500996735.4,286046321.7,N
1500996755.2,286046319.7,N
1500996775.0,286046324.4,N
1500996775.9,286046324.4,N
1500996795.8,286046325.5,N
1500996815.6,286046325.9,N
1500996835.4,286046324.5,N
1500996855.3,286046324.2,N
1500996875.1,286046321.4,N
1500996895.8,286046323.2,N
1500996915.7,286046323.4,N
1500996935.5,286046326.2,N
1500996955.3,286046325.3,N
1500996975.2,286046327.2,N
1500996995.9,286046322.5,N
1500997015.7,286046318.9,N
1500997035.6,286046316.6,N
1500997055.4,286046318.4,N
1500997075.2,286046320.3,N
1500997095.0,286046321.2,N
1500997095.9,286046321.2,N
1500997115.8,286046319.7,N
1500997135.6,286046320.7,N
1500997155.4,286046321.2,N
1500997175.3,286046320.6,N
1500997195.1,286046322.3,N
1500997215.8,286046322.8,N
1500997235.7,286046320.7,N
1500997255.5,286046320.4,N
1500997275.3,286046324.4,N
1500997295.2,286046322.0,N
1500997315.9,286046319.6,N
1500997335.7,286046321.6,N
1500997355.5,286046320.3,N
1500997375.4,286046319.5,N
1500997395.2,286046318.9,N
1500997415.0,286046325.5,N
1500997415.9,286046325.5,N
1500997435.8,286046325.7,N
1500997455.6,286046325.2,N
1500997475.4,286046323.5,N
1500997495.3,286046325.6,N
1500997515.1,286046327.4,N
1500997516.0,286046327.4,N
1500997535.8,286046323.7,N
1500997555.7,286046326.9,N
1500997575.5,286046324.3,N
1500997595.3,286046325.1,N
1500997615.2,286046319.8,N
1500997635.9,286046322.6,N
1500997655.7,286046323.5,N
1500997675.5,286046324.7,N
1500997695.4,286046323.7,N
1500997715.2,286046327.1,N
1500997735.0,286046323.7,N
1500997735.9,286046323.7,N
1500997755.8,286046323.3,N
1500997775.6,286046321.7,N
1500997795.4,286046325.5,N
1500997815.3,286046329.1,N
1500997835.1,286046327.0,N
1500997836.0,286046327.0,N
1500997855.8,286046329.7,N
1500997875.7,286046330.1,N
1500997895.5,286046329.4,N
1500997915.3,286046326.3,N
1500997935.1,286046326.5,N
1500997955.9,286046326.4,N
1500997975.7,286046326.6,N
1500997995.5,286046327.4,N
1500998015.4,286046327.5,N
1500998035.2,286046329.3,N
1500998055.0,286046326.9,N
1500998055.9,286046326.9,N
1500998075.8,286046323.3,N
1500998095.6,286046323.0,N
1500998115.4,286046323.8,N
1500998135.3,286046324.8,N
1500998155.1,286046272.8,N
1500998156.0,286046272.8,N
1500998175.8,286046271.9,N
1500998195.7,286046272.3,N
1500998215.5,286046272.5,N
1500998235.3,286046275.6,N
1500998255.2,286046273.9,N
1500998275.9,286046275.0,N
1500998295.7,286046272.7,N
1500998315.5,286046274.5,N
1500998335.4,286046272.5,N
1500998355.2,286046271.8,N
1500998375.0,286046269.2,N
1500998375.9,286046269.2,N
1500998395.8,286046270.0,N
